TimeCDT,TemperatureF,Dew PointF,Humidity,Sea Level PressureIn,VisibilityMPH,Wind Direction,Wind SpeedMPH,Gust SpeedMPH,PrecipitationIn,Events,Conditions,WindDirDegrees,DateUTC
12:15 AM,71.6,50.0,46,29.91,10.0,SSW,10.4,16.1,N/A,,Clear,200,2013-05-01 05:15:00
12:35 AM,69.8,50.0,49,29.92,10.0,SSW,9.2,-,N/A,,Clear,200,2013-05-01 05:35:00
12:55 AM,69.8,50.0,49,29.93,10.0,SSW,10.4,-,N/A,,Clear,200,2013-05-01 05:55:00
1:15 AM,69.8,50.0,49,29.93,10.0,SSW,10.4,-,N/A,,Clear,200,2013-05-01 06:15:00
1:35 AM,69.8,50.0,49,29.94,10.0,SSW,10.4,-,N/A,,Clear,200,2013-05-01 06:35:00
2:15 AM,68.0,51.8,56,29.94,10.0,South,8.1,-,N/A,,Clear,190,2013-05-01 07:15:00
2:35 AM,68.0,51.8,56,29.94,10.0,South,8.1,-,N/A,,Clear,190,2013-05-01 07:35:00
2:55 AM,68.0,51.8,56,29.94,10.0,South,11.5,16.1,N/A,,Clear,180,2013-05-01 07:55:00
3:15 AM,68.0,51.8,56,29.95,10.0,West,6.9,-,N/A,,Clear,280,2013-05-01 08:15:00
3:35 AM,66.2,51.8,60,29.97,10.0,WNW,4.6,-,N/A,,Clear,290,2013-05-01 08:35:00
3:55 AM,64.4,51.8,64,29.97,10.0,WSW,5.8,-,N/A,,Clear,250,2013-05-01 08:55:00
4:15 AM,64.4,51.8,64,29.98,10.0,SW,6.9,-,N/A,,Clear,220,2013-05-01 09:15:00
4:35 AM,64.4,51.8,64,29.98,10.0,SW,5.8,-,N/A,,Clear,230,2013-05-01 09:35:00
4:55 AM,64.4,51.8,64,29.99,10.0,SSW,4.6,-,N/A,,Clear,210,2013-05-01 09:55:00
5:15 AM,64.4,51.8,64,29.99,10.0,South,5.8,-,N/A,,Clear,180,2013-05-01 10:15:00
5:35 AM,62.6,51.8,68,30.00,10.0,South,5.8,-,N/A,,Clear,190,2013-05-01 10:35:00
5:55 AM,62.6,51.8,68,30.01,10.0,SSW,4.6,-,N/A,,Clear,200,2013-05-01 10:55:00
6:15 AM,62.6,51.8,68,30.02,10.0,South,3.5,-,N/A,,Clear,190,2013-05-01 11:15:00
6:35 AM,62.6,53.6,72,30.03,10.0,South,5.8,-,N/A,,Clear,180,2013-05-01 11:35:00
6:55 AM,64.4,53.6,68,30.03,10.0,South,5.8,-,N/A,,Clear,190,2013-05-01 11:55:00
7:15 AM,64.4,53.6,68,30.04,10.0,SSW,6.9,-,N/A,,Clear,200,2013-05-01 12:15:00
7:35 AM,64.4,53.6,68,30.04,10.0,SSW,5.8,-,N/A,,Clear,210,2013-05-01 12:35:00
7:55 AM,68.0,53.6,60,30.04,10.0,SW,8.1,-,N/A,,Clear,220,2013-05-01 12:55:00
8:15 AM,68.0,53.6,60,30.05,10.0,SW,5.8,-,N/A,,Clear,220,2013-05-01 13:15:00
8:35 AM,69.8,51.8,53,30.05,10.0,WSW,8.1,-,N/A,,Clear,240,2013-05-01 13:35:00
8:55 AM,69.8,51.8,53,30.06,10.0,SW,9.2,-,N/A,,Clear,230,2013-05-01 13:55:00
9:15 AM,71.6,51.8,50,30.06,10.0,SW,10.4,-,N/A,,Clear,230,2013-05-01 14:15:00
9:35 AM,71.6,51.8,50,30.07,10.0,SW,5.8,-,N/A,,Clear,230,2013-05-01 14:35:00
9:55 AM,73.4,51.8,47,30.07,10.0,WSW,8.1,-,N/A,,Clear,240,2013-05-01 14:55:00
10:15 AM,75.2,51.8,44,30.08,-9999.0,SW,9.2,-,0.03,,Clear,230,2013-05-01 15:15:00
10:35 AM,73.4,51.8,47,30.08,10.0,SSW,9.2,-,0.03,,Clear,200,2013-05-01 15:35:00
11:15 AM,73.4,50.0,44,30.09,10.0,WSW,8.1,-,N/A,,Clear,240,2013-05-01 16:15:00
11:35 AM,75.2,50.0,41,30.09,10.0,West,9.2,-,N/A,,Clear,260,2013-05-01 16:35:00
11:55 AM,75.2,50.0,41,30.09,10.0,SW,4.6,-,N/A,,Clear,230,2013-05-01 16:55:00
12:15 PM,77.0,48.2,36,30.08,10.0,WSW,8.1,-,N/A,,Clear,240,2013-05-01 17:15:00
12:35 PM,77.0,50.0,39,30.08,10.0,South,3.5,-,N/A,,Clear,170,2013-05-01 17:35:00
12:55 PM,77.0,48.2,36,30.08,10.0,SW,5.8,-,N/A,,Clear,230,2013-05-01 17:55:00
1:15 PM,78.8,48.2,34,30.08,10.0,SW,5.8,-,N/A,,Clear,230,2013-05-01 18:15:00
1:35 PM,78.8,46.4,32,30.08,10.0,SE,3.5,-,N/A,,Clear,140,2013-05-01 18:35:00
1:55 PM,78.8,48.2,34,30.08,10.0,East,8.1,-,N/A,,Scattered Clouds,90,2013-05-01 18:55:00
2:15 PM,73.4,50.0,44,30.09,10.0,ENE,13.8,-,N/A,,Overcast,70,2013-05-01 19:15:00
2:35 PM,73.4,51.8,47,30.09,10.0,ENE,12.7,17.3,N/A,,Mostly Cloudy,70,2013-05-01 19:35:00
3:15 PM,73.4,50.0,44,30.09,10.0,East,10.4,16.1,N/A,,Scattered Clouds,100,2013-05-01 20:15:00
3:35 PM,71.6,50.0,46,30.09,10.0,East,12.7,-,N/A,,Scattered Clouds,100,2013-05-01 20:35:00
3:55 PM,73.4,50.0,44,30.10,10.0,East,12.7,-,N/A,,Scattered Clouds,100,2013-05-01 20:55:00
4:15 PM,73.4,50.0,44,30.10,10.0,ESE,13.8,17.3,N/A,,Clear,110,2013-05-01 21:15:00
4:35 PM,71.6,50.0,46,30.10,10.0,East,11.5,16.1,N/A,,Mostly Cloudy,80,2013-05-01 21:35:00
5:15 PM,69.8,50.0,49,30.10,10.0,ENE,11.5,-,N/A,,Clear,70,2013-05-01 22:15:00
5:35 PM,68.0,48.2,49,30.10,10.0,East,12.7,19.6,N/A,,Clear,80,2013-05-01 22:35:00
5:55 PM,68.0,50.0,52,30.11,10.0,ENE,12.7,-,N/A,,Clear,70,2013-05-01 22:55:00
6:15 PM,68.0,50.0,52,30.12,10.0,ENE,10.4,20.7,N/A,,Scattered Clouds,60,2013-05-01 23:15:00
6:35 PM,66.2,50.0,56,30.12,10.0,NE,11.5,-,N/A,,Clear,50,2013-05-01 23:35:00
6:55 PM,64.4,50.0,59,30.13,10.0,NE,9.2,-,N/A,,Scattered Clouds,50,2013-05-01 23:55:00
7:15 PM,62.6,46.4,55,30.13,10.0,NE,12.7,17.3,N/A,,Scattered Clouds,50,2013-05-02 00:15:00
7:35 PM,59.0,46.4,63,30.15,10.0,NE,16.1,-,N/A,,Scattered Clouds,40,2013-05-02 00:35:00
7:55 PM,55.4,44.6,67,30.16,10.0,NE,15.0,19.6,N/A,,Mostly Cloudy,50,2013-05-02 00:55:00
8:35 PM,51.8,37.4,58,30.18,10.0,NE,11.5,20.7,N/A,,Clear,40,2013-05-02 01:35:00
8:55 PM,51.8,37.4,58,30.20,10.0,NE,17.3,21.9,N/A,,Mostly Cloudy,50,2013-05-02 01:55:00
9:35 PM,50.0,35.6,58,30.20,10.0,NE,17.3,24.2,N/A,,Clear,40,2013-05-02 02:35:00
9:55 PM,48.2,35.6,62,30.21,10.0,NE,13.8,25.3,N/A,,Scattered Clouds,40,2013-05-02 02:55:00
10:15 PM,48.2,35.6,62,30.21,10.0,NE,15.0,24.2,N/A,,Scattered Clouds,50,2013-05-02 03:15:00
10:35 PM,48.2,35.6,62,30.22,10.0,NE,15.0,21.9,N/A,,Clear,40,2013-05-02 03:35:00
10:55 PM,46.4,35.6,66,30.23,10.0,NNE,16.1,-,N/A,,Scattered Clouds,30,2013-05-02 03:55:00
11:15 PM,46.4,33.8,62,30.24,10.0,NNE,9.2,21.9,N/A,,Scattered Clouds,30,2013-05-02 04:15:00
11:35 PM,46.4,35.6,66,30.23,10.0,NE,17.3,24.2,N/A,,Mostly Cloudy,40,2013-05-02 04:35:00
11:55 PM,46.4,33.8,62,30.25,10.0,NNE,10.4,24.2,N/A,,Overcast,30,2013-05-02 04:55:00